Voltar ao catálogo

COSMOS 2389

AtivoMilitarPO
NORAD 27436·PAYLOAD·🇷🇺 Russia

Lançado May 28, 2002 de Plesetsk Cosmodrome

Loading…

Próximas Passagens (próximas 24 horas)

TLE

AtualizadoSource: Space-Track

Época: Sep 14, 2026, 14:14 UTC

1 27436U 02026A   26257.59340941  .00000035  00000-0  20663-4 0  9998
2 27436  82.9471 102.8278 0046641  11.6896  11.0346 13.75178191219409

Acompanhe COSMOS 2389 em tempo real com AllMySat

Download on the App Store